This is the latest recevied weather packets stored in our database for station/object K1WJY. If no packets are shown the sender has not sent any weather packets the latest 10 day(s).
| Time | Temp. | Humidity | Pressure | Rain* | Wind** | Luminosity | Snow |
|---|---|---|---|---|---|---|---|
| 1787663040 | 20° C | 93% | 1015.8 hPa | 0 mm | - | 301 W/m² | - |
| 1787662740 | 19.44° C | 96% | 1015.6 hPa | 0 mm | - | 458 W/m² | - |
| 1787662435 | 18.89° C | 98% | 1015.7 hPa | 0 mm | - | 208 W/m² | - |
| 1787662130 | 18.89° C | 99% | 1015.5 hPa | 0 mm | - | 173 W/m² | - |
| 1787661827 | 18.33° C | 99% | 1015.7 hPa | 0 mm | - | 170 W/m² | - |
| 1787661526 | 18.33° C | 99% | 1015.8 hPa | 0 mm | - | 158 W/m² | - |
| 1787661224 | 18.33° C | 99% | 1015.7 hPa | 0 mm | - | 124 W/m² | - |
| 1787660923 | 17.78° C | 99% | 1015.7 hPa | 0 mm | - | 87 W/m² | - |
| 1787660619 | 17.78° C | 99% | 1015.9 hPa | 0 mm | - | 78 W/m² | - |
| 1787660314 | 17.78° C | 99% | 1015.8 hPa | 0 mm | - | 103 W/m² | - |
| 1787660009 | 17.78° C | 99% | 1015.8 hPa | 0 mm | - | 146 W/m² | - |
| 1787659707 | 17.22° C | 99% | 1016 hPa | 0 mm | - | 115 W/m² | - |
| 1787659401 | 17.22° C | 99% | 1015.9 hPa | 0 mm | - | 109 W/m² | - |
| 1787659101 | 17.22° C | 99% | 1015.6 hPa | 0 mm | - | 97 W/m² | - |
| 1787658797 | 17.22° C | 99% | 1015.8 hPa | 0 mm | - | 86 W/m² | - |
| 1787658495 | 17.22° C | 99% | 1015.8 hPa | 0 mm | - | 84 W/m² | - |
| 1787658193 | 17.22° C | 99% | 1015.8 hPa | 0 mm | - | 73 W/m² | - |
| 1787657887 | 17.22° C | 99% | 1015.9 hPa | 0 mm | - | 65 W/m² | - |
| 1787657587 | 17.22° C | 99% | 1015.7 hPa | 0 mm | - | 64 W/m² | - |
| 1787657282 | 17.22° C | 99% | 1016 hPa | 0 mm | - | 54 W/m² | - |
| 1787656978 | 17.22° C | 99% | 1015.8 hPa | 0 mm | - | 47 W/m² | - |
| 1787656674 | 17.22° C | 99% | 1015.7 hPa | 0 mm | - | 50 W/m² | - |
| 1787656370 | 17.22° C | 99% | 1015.7 hPa | 0 mm | - | 41 W/m² | - |
| 1787656064 | 17.22° C | 99% | 1015.8 hPa | 0 mm | - | 40 W/m² | - |
| 1787655762 | 17.22° C | 99% | 1015.7 hPa | 0 mm | - | 42 W/m² | - |
* Rain latest hour (hover to see other rain measurements)
** Current wind speed in m/s (hover to see current wind gust speed)